Content
SEND FEEDBACK

Daily
Averages
Monthly
Summary
United States of America

MILAN, MICHIGAN


Home > North America > United States > Michigan
Elevation: 660 feet     Latitude: 42 05N     Longitude: 083 35W

WEATHER
 
SELECT A DAY
Number of Records: 205,724;   Date Range: 1/1/95 - 10/21/14
 
SHARE

PRINT THIS DATA

[ ← Previous Day ]
WEATHER ALMANAC - SEPTEMBER 18, 2013
[ Next Day → ]
[ °C ]   °F
Weather ElementAverageHighLow
Temperature62.2 °F77 °F (2:53 pm)48 °F (1:53 am)
Dewpoint50.1 °F57 °F (9:53 pm)39.9 °F (4:53 pm)
Humidity67.7 %86 % (6:53 am)28 % (4:53 pm)
Barometer30.13 in30.21 in (1:53 am)30.05 in (11:53 pm)
Wind Speed3.9 mph10.4 mph (3:53 pm)
Weather ElementAverage
Visibility9.6 mi
Wind DirectionE (86.5 °)

Weather ElementTotal
Precipitation---
Heating Degree Days2.5 (Base 65)
Growing Degree Days12.5 (Base 50)
Averaged from 23 records on September 18, 2013
WEATHER CONDITIONS BREAKOUT
WIND DIRECTION BREAKOUT
WEATHER BY HOUR - SEPTEMBER 18, 2013
[ °C ]   °F
Local TimeTemperatureDewpointHumidityBarometerVisibilityWind DirectionWind SpeedGust SpeedPrecipitationEventsConditions
1:53 AM48.0 °F43.0 °F83 %30.21 in10.0 miCalmClear
2:53 AM48.9 °F43.0 °F80 %30.20 in10.0 miENE (60°)3.5 mphClear
3:53 AM48.9 °F43.0 °F80 %30.19 in10.0 miCalmClear
4:53 AM50.0 °F44.1 °F80 %30.18 in10.0 miCalmClear
5:53 AM48.9 °F44.1 °F83 %30.18 in10.0 miCalmClear
6:53 AM48.0 °F44.1 °F86 %30.19 in10.0 miCalmClear
7:53 AM51.1 °F46.0 °F83 %30.20 in10.0 miCalmClear
8:53 AM55.0 °F48.9 °F80 %30.19 in10.0 miCalmClear
9:53 AM61.0 °F53.1 °F75 %30.19 in10.0 miCalmClear
10:53 AM64.9 °F53.1 °F65 %30.18 in10.0 miSouth (180°)4.6 mphClear
11:53 AM70.0 °F54.0 °F57 %30.17 in10.0 miSSW (200°)6.9 mphClear
12:53 PM71.1 °F55.0 °F57 %30.15 in10.0 miSSE (160°)5.8 mphClear
1:53 PM75.0 °F55.0 °F50 %30.13 in10.0 miSE (130°)6.9 mphClear
2:53 PM77.0 °F51.1 °F40 %30.12 in10.0 miSSE (160°)9.2 mphClear
3:53 PM75.9 °F45.0 °F33 %30.09 in10.0 miSSE (150°)10.4 mphClear
4:53 PM75.0 °F39.9 °F28 %30.07 in10.0 miSSE (160°)8.1 mphClear
5:53 PM75.0 °F53.1 °F46 %30.06 in10.0 miSSE (160°)8.1 mphClear
6:53 PM72.0 °F55.0 °F55 %30.06 in10.0 miSE (140°)6.9 mphClear
7:53 PM64.9 °F55.9 °F73 %30.06 in10.0 miSE (130°)4.6 mphClear
8:53 PM63.0 °F55.9 °F78 %30.07 in10.0 miESE (120°)5.8 mphClear
9:53 PM64.0 °F57.0 °F78 %30.06 in9.0 miESE (120°)4.6 mphClear
10:53 PM62.1 °F57.0 °F84 %30.06 in6.0 miESE (120°)3.5 mphHaze
11:53 PM61.0 °F55.9 °F83 %30.05 in6.0 miCalmHaze
Hourly data recorded from KYIP, located miles away from Milan, Michigan







STORIES FROM OUR PARTNERS